CW5752 Weather Reports


time (UTC)temp
C
wind
direction
speed
KPH
gust
KPH
rain 1hr
cm
rain 24hr
cm
rain mn
cm
humidity
%
barometer
mb
20260509101520 13 0.0 0.0 0.00 0.76 0.76 94 1008.5
20260509100520 13 0.0 3.2 0.00 0.76 0.76 94 1008.6
20260509095520 13 0.0 1.6 0.00 0.76 0.76 94 1008.7
20260509094515 13 0.0 0.0 0.00 0.76 0.76 94 1008.3
20260509093520 13 0.0 0.0 0.00 0.76 0.76 93 1008.2
20260509092520 12 0.0 0.0 0.00 0.76 0.76 93 1008.1
20260509091520 12 0.0 0.0 0.00 0.76 0.76 93 1007.9
20260509090520 12 0.0 0.0 0.00 0.76 0.76 93 1008.0
20260509085520 13 0.0 0.0 0.03 0.76 0.76 93 1007.8
20260509084520 13 0.0 0.0 0.03 0.76 0.76 93 1007.9
20260509083515 13 28 0.0 1.6 0.03 0.76 0.76 93 1007.7
20260509082520 13 0.0 0.0 0.03 0.76 0.76 93 1007.8
20260509081520 13 0.0 3.2 0.10 0.76 0.76 93 1007.7
20260509080541 13 0.0 0.0 0.15 0.76 0.76 92 1007.8
20260509075520 13 0.0 0.0 0.15 0.74 0.71 92 1007.7
20260509074521 13 0.0 0.0 0.30 0.74 0.71 92 1007.7
20260509073516 13 0.0 0.0 0.38 0.74 0.71 92 1007.8
20260509072516 13 28 0.0 3.2 0.48 0.74 0.71 92 1008.0
20260509071520 13 18 0.0 4.8 0.58 0.66 0.66 92 1007.4
20260509070520 13 323 0.0 3.2 0.61 0.61 0.61 91 1007.8
20260509065520 13 0.0 0.0 0.53 0.53 0.56 91 1008.6
20260509064520 13 0.0 3.2 0.43 0.43 0.43 91 1008.9
20260509063520 13 322 0.0 3.2 0.33 0.33 0.33 90 1009.1
20260509062522 13 321 0.0 4.8 0.25 0.25 0.25 89 1009.3
20260509061520 14 327 0.0 4.8 0.08 0.08 0.08 88 1009.3
20260509060520 14 335 0.0 4.8 0.00 0.00 0.00 86 1009.5
20260509055520 15 336 0.0 3.2 0.00 0.00 0.00 84 1009.5
20260509054520 15 336 1.6 11.3 0.00 0.00 0.00 83 1010.0
20260509053517 15 331 1.6 16.1 0.00 0.00 0.00 82 1009.9
20260509052520 15 332 1.6 12.9 0.00 0.00 0.00 82 1009.4
20260509051523 16 334 1.6 9.7 0.00 0.00 0.00 82 1009.5
20260509050522 16 344 1.6 12.9 0.00 0.00 0.00 80 1009.1
20260509045515 16 332 4.8 12.9 0.00 0.00 0.00 78 1009.0
20260509044521 17 315 1.6 4.8 0.00 0.00 0.00 73 1008.7
20260509043521 17 309 0.0 3.2 0.00 0.00 0.00 69 1008.4
20260509042541 17 309 0.0 4.8 0.00 0.00 0.00 66 1008.4
20260509041521 17 308 0.0 4.8 0.00 0.00 0.00 68 1008.2
20260509040521 17 187 1.6 6.4 0.00 0.00 0.00 66 1008.3
20260509035516 17 0.0 4.8 0.00 0.00 0.00 64 1008.0
20260509034516 17 165 0.0 3.2 0.00 0.00 0.00 65 1007.9
20260509033521 17 165 0.0 3.2 0.00 0.00 0.00 66 1007.8
20260509032521 17 165 0.0 3.2 0.00 0.00 0.00 67 1007.9
20260509031521 17 165 0.0 3.2 0.00 0.00 0.00 65 1008.1
20260509030539 18 165 0.0 3.2 0.00 0.00 0.00 63 1008.3
20260509025521 18 165 0.0 6.4 0.00 0.00 0.00 63 1008.5
20260509024516 18 165 0.0 4.8 0.00 0.00 0.00 64 1008.4
20260509023521 17 163 0.0 4.8 0.00 0.00 0.00 65 1008.3
20260509022521 17 160 0.0 3.2 0.00 0.00 0.00 66 1008.2
20260509021521 17 0.0 0.0 0.00 0.00 0.00 70 1008.1
20260509020521 16 0.0 0.0 0.00 0.00 0.00 73 1008.0
20260509015521 17 0.0 0.0 0.00 0.00 0.00 70 1007.8
20260509014521 17 0.0 0.0 0.00 0.00 0.00 68 1007.9
20260509013516 18 0.0 0.0 0.00 0.00 0.00 64 1007.9
20260509012521 18 160 0.0 3.2 0.00 0.00 0.00 63 1007.7
20260509011521 18 159 0.0 6.4 0.00 0.00 0.00 61 1007.7
20260509010521 19 169 0.0 3.2 0.00 0.00 0.00 59 1007.9
20260509005521 19 169 0.0 3.2 0.00 0.00 0.00 59 1007.9
20260509004521 20 167 1.6 6.4 0.00 0.00 0.00 57 1007.9
20260509003515 20 169 1.6 9.7 0.00 0.00 0.00 57 1007.9
20260509002521 20 183 1.6 6.4 0.00 0.00 0.00 56 1008.0
20260509001521 20 192 0.0 3.2 0.00 0.00 0.00 57 1007.8
20260509000521 20 171 0.0 3.2 0.00 0.00 0.00 58 1008.0
20260508235521 21 175 1.6 9.7 0.00 0.00 0.00 56 1008.1
20260508234521 21 165 1.6 8.0 0.00 0.00 0.00 56 1008.2
20260508233521 21 190 1.6 9.7 0.00 0.00 0.00 55 1008.4
20260508232516 21 177 0.0 3.2 0.00 0.00 0.00 57 1008.6
20260508231541 21 184 1.6 8.0 0.00 0.00 0.00 56 1008.6
20260508230521 22 181 1.6 11.3 0.00 0.00 0.00 53 1008.6
20260508225521 21 175 3.2 17.7 0.00 0.00 0.00 53 1008.6
20260508224541 22 178 3.2 16.1 0.00 0.00 0.00 54 1008.7
20260508223521 22 194 4.8 11.3 0.00 0.00 0.00 53 1008.7
20260508222516 22 186 4.8 12.9 0.00 0.00 0.00 52 1008.8
20260508221516 22 179 4.8 16.1 0.00 0.00 0.00 52 1008.9
20260508220521 22 195 4.8 17.7 0.00 0.00 0.00 53 1008.9
20260508215521 23 191 6.4 20.9 0.00 0.00 0.00 50 1008.7
20260508214521 23 183 4.8 17.7 0.00 0.00 0.00 51 1008.8
20260508213519 23 188 4.8 16.1 0.00 0.00 0.00 49 1008.9
20260508212521 23 183 6.4 19.3 0.00 0.00 0.00 48 1008.9
20260508211516 23 207 6.4 20.9 0.00 0.00 0.00 50 1008.9
20260508210521 23 188 8.0 20.9 0.00 0.00 0.00 50 1009.0
20260508205541 23 194 9.7 22.5 0.00 0.00 0.00 46 1009.2
20260508204601 23 201 8.0 19.3 0.00 0.00 0.00 51 1009.3
20260508203521 23 210 9.7 29.0 0.00 0.00 0.00 48 1009.3
20260508202521 23 204 9.7 19.3 0.00 0.00 0.00 52 1009.6
20260508201516 23 191 8.0 16.1 0.00 0.00 0.00 49 1009.5
20260508200515 23 194 3.2 17.7 0.00 0.00 0.00 52 1009.6
20260508195541 23 186 4.8 19.3 0.00 0.00 0.00 52 1009.7
20260508194621 23 195 9.7 22.5 0.00 0.00 0.00 48 1009.9
20260508193520 23 190 8.0 20.9 0.00 0.00 0.00 50 1010.1
20260508192521 23 196 9.7 20.9 0.00 0.00 0.00 50 1010.3
20260508191521 23 189 6.4 14.5 0.00 0.00 0.00 51 1010.5
20260508190516 23 194 6.4 22.5 0.00 0.00 0.00 54 1010.7
20260508185521 22 175 6.4 19.3 0.00 0.00 0.00 51 1010.9
20260508184521 23 196 4.8 16.1 0.00 0.00 0.00 52 1011.0
20260508183521 22 185 4.8 20.9 0.00 0.00 0.00 57 1011.2
20260508182541 22 178 4.8 14.5 0.00 0.00 0.00 51 1011.1
20260508181521 22 197 3.2 16.1 0.00 0.00 0.00 54 1011.3
20260508180541 22 165 3.2 16.1 0.00 0.00 0.00 56 1011.4
20260508175515 22 181 4.8 19.3 0.00 0.00 0.00 54 1011.6
20260508174521 21 171 3.2 14.5 0.00 0.00 0.00 56 1011.8
20260508173520 21 173 6.4 19.3 0.00 0.00 0.00 56 1012.1
20260508172521 21 182 4.8 17.7 0.00 0.00 0.00 55 1012.3
20260508171521 22 193 4.8 17.7 0.00 0.00 0.00 57 1012.4
20260508170521 21 208 6.4 14.5 0.00 0.00 0.00 57 1012.6
20260508165516 21 187 3.2 16.1 0.00 0.00 0.00 57 1012.7
20260508164516 21 189 4.8 17.7 0.00 0.00 0.00 55 1013.0
20260508163541 20 193 4.8 20.9 0.00 0.00 0.00 58 1013.1
20260508162520 20 190 6.4 16.1 0.00 0.00 0.00 56 1013.2
20260508161521 20 190 4.8 17.7 0.00 0.00 0.00 60 1013.3
20260508160519 19 182 3.2 14.5 0.00 0.00 0.00 58 1013.2
20260508155521 19 192 6.4 14.5 0.00 0.00 0.00 56 1013.5
20260508154536 18 188 6.4 22.5 0.00 0.00 0.00 60 1013.6
20260508153521 18 171 4.8 19.3 0.00 0.00 0.00 60 1013.6
20260508152520 18 187 4.8 24.1 0.00 0.00 0.00 58 1013.5
20260508151601 18 179 4.8 16.1 0.00 0.00 0.00 59 1013.5
20260508150521 18 192 4.8 16.1 0.00 0.00 0.00 60 1013.7
20260508145521 18 184 6.4 12.9 0.00 0.00 0.00 61 1013.8
20260508144516 18 191 6.4 17.7 0.00 0.00 0.00 59 1014.0
20260508143536 17 191 3.2 11.3 0.00 0.00 0.00 63 1014.0
20260508142541 17 174 4.8 16.1 0.00 0.00 0.00 61 1014.1
20260508141521 17 188 6.4 14.5 0.00 0.00 0.00 62 1014.3
20260508140520 17 199 3.2 9.7 0.00 0.00 0.00 65 1014.4
20260508135540 16 214 1.6 12.9 0.00 0.00 0.00 63 1014.5
20260508134520 16 190 4.8 11.3 0.00 0.00 0.00 64 1014.4
20260508133516 15 190 4.8 14.5 0.00 0.00 0.00 66 1014.6
20260508132520 15 194 1.6 12.9 0.00 0.00 0.00 68 1014.5
20260508131521 13 187 4.8 14.5 0.00 0.00 0.00 68 1014.4
20260508130521 13 193 4.8 12.9 0.00 0.00 0.00 69 1014.6
20260508125520 12 176 3.2 11.3 0.00 0.00 0.00 69 1014.7
20260508124520 12 178 1.6 8.0 0.00 0.00 0.00 70 1014.6
20260508123521 11 164 1.6 8.0 0.00 0.00 0.00 70 1014.5
20260508122515 11 155 0.0 3.2 0.00 0.00 0.00 72 1014.5
20260508121541 10 0.0 0.0 0.00 0.00 0.00 74 1014.4
20260508120541 10 0.0 0.0 0.00 0.00 0.00 75 1014.5
20260508115521 10 0.0 0.0 0.00 0.00 0.00 75 1014.4
20260508114520 10 0.0 0.0 0.00 0.00 0.00 75 1014.4
20260508113520 9 0.0 0.0 0.00 0.00 0.00 74 1014.3
20260508112515 9 0.0 0.0 0.00 0.00 0.00 73 1014.3
20260508111536 10 0.0 3.2 0.00 0.00 0.00 72 1014.2
20260508110521 10 0.0 3.2 0.00 0.00 0.00 73 1014.2
20260508105520 10 155 0.0 3.2 0.00 0.00 0.00 72 1014.2
20260508104520 10 0.0 0.0 0.00 0.00 0.00 72 1014.2
20260508103520 10 0.0 3.2 0.00 0.00 0.00 71 1014.1
20260508102541 10 155 0.0 3.2 0.00 0.00 0.00 70 1014.1